Вернуться в каталог

BEIDOU 2 G8

АктивенНавигацияGEO
NORAD 44231·PAYLOAD·🇨🇳 China

Запущен May 17, 2019 с Xichang Satellite Launch Center

Loading…

TLE

СвежийSource: Space-Track

Эпоха: Sep 14, 2026, 12:17 UTC

1 44231U 19027A   26257.51205365 -.00000254  00000-0  00000-0 0  9994
2 44231   1.8793  74.3138 0009063 278.8353 329.2382  1.00271621 26977

Отслеживайте BEIDOU 2 G8 в реальном времени с AllMySat

Download on the App Store